Regional Weather Roundup
Issued by NWS

Home | Current Version | Previous Version | Graphics & Text | Print | Product List | Glossary On
Versions: 1 2 3 4 5 6 7 8 9 10 11 12 13 14 15 16 17 18 19 20 21 22 23 24 25 26 27 28 29 30 31 32 33 34 35 36 37 38 39 40 41 42 43 44 45 46 47 48 49 50
000
ASUS43 KMPX 280501
RWRMN
WEATHER ROUNDUP FOR MINNESOTA
NATIONAL WEATHER SERVICE TWIN CITIES/CHANHASSEN MN
1100 PM CST SAT DEC 27 2014


NOTE: "FAIR" INDICATES FEW OR NO CLOUDS BELOW 12,000 FEET WITH NO
SIGNIFICANT WEATHER AND/OR OBSTRUCTIONS TO VISIBILITY. N/A MEANS
CURRENT SKY AND/OR WEATHER CONDITIONS ARE NOT AVAILABLE.

MNZ060>063-068>070-280600-
   Twin Cities Metro

CITY           SKY/WX    TMP DP  RH WIND       PRES   REMARKS
TWIN CITIES    PTCLDY    11   6  81 SW6       30.12S WCI   1
ST PAUL        CLEAR     11   6  81 S5        30.14S WCI   3
CRYSTAL        PTCLDY    12   7  80 S5        30.10S WCI   4
BLAINE         MOCLDY    12  10  92 SW3       30.09F
LAKEVILLE      CLEAR      9   7  92 CALM      30.12S
EDEN PRAIRIE   CLEAR      8   4  83 SW5       30.11S WCI   0
SOUTH ST PAUL  CLEAR     12   8  83 CALM      30.12F
LAKE ELMO      FAIR      10   7  85 S5        30.12S WCI   2
$$
MNZ001>005-007-008-013>017-022>024-027-028-280600-
   Northwest Minnesota

CITY           SKY/WX    TMP DP  RH WIND       PRES   REMARKS
BEMIDJI        LGT SNOW  16  13  89 NW6       30.00S WCI   7
HALLOCK        CLOUDY     7   0  72 N10       30.13R WCI  -8
ROSEAU         PTCLDY     1  -4  78 N9        30.10R WCI -14
WARROAD        PTCLDY     1  -6  71 NW7       30.08R WCI -11
THIEF RVR FALL CLOUDY    12   9  85 N12       30.06R WCI  -2
CROOKSTON      FLURRIES  12   9  85 N14       30.09R WCI  -3
FOSSTON        FLURRIES  14  10  85 N7        30.03S WCI   4
DETROIT LAKES  CLOUDY    23  21  93 NW5       30.01S WCI  17
MOORHEAD       CLOUDY    23  23 100 W3        30.04S
PARK RAPIDS    CLOUDY    20  17  88 W3        29.99S
MAHNOMEN       CLOUDY    19  17  90 N5        30.01F WCI  12
$$
MNZ006-009>011-018-025>026-280600-
   North Central Minnesota

CITY           SKY/WX    TMP DP  RH WIND       PRES   REMARKS
BAUDETTE       CLOUDY     4  -1  80 NW14      30.04R WCI -14
FLAG ISLAND    CLOUDY     0  -6  78 NW15      30.06R WCI -20
INTL FALLS     CLOUDY    11   5  77 NW10      30.00R WCI  -3
WASKISH        FLURRIES  14  10  85 NW6       30.02S WCI   5
BIG FORK       LGT SNOW  16  10  79 NW3       29.99S
LONGVILLE      CLOUDY    19  16  86 SW3       30.00S
GRAND RAPIDS   CLOUDY    18  12  79 W3        29.98S
CRANE LAKE     FLURRIES  12   9  85 W3        30.00S
ORR            FLURRIES  12   9  85 W3        29.95S
COOK           FLURRIES  12  10  92 W6        29.98S WCI   3
WALKER         CLOUDY    18  14  84 W3        30.00R
$$
MNZ012-019>021-037-280600-
   Northeast Minnesota

CITY           SKY/WX    TMP DP  RH WIND       PRES   REMARKS
DULUTH         MOCLDY    17   6  62 W7        29.97S WCI   8
ELY            FLURRIES  12   9  85 W7        29.95S WCI   2
HIBBING        LGT SNOW  18  11  74 CALM      29.98S
EVELETH        LGT SNOW  18  14  86 W5        29.98S WCI  11
DULUTH HARBOR  MOCLDY    23  12  63 CALM      30.04S
TWO HARBORS    CLOUDY    21  12  68 W6        29.96S WCI  14
SILVER BAY     CLOUDY    19  10  68 W5        29.94S WCI  13
GRAND MARAIS     N/A     20  11  68 W9G17     29.98R WCI   9
G MARAIS ARPRT MOCLDY    10   5  79 W6        29.88S WCI   1
$$
MNZ029>031-032-039>041-046>048-054>057-064-280600-
   West Central Minnesota

CITY           SKY/WX    TMP DP  RH WIND       PRES   REMARKS
FERGUS FALLS   CLOUDY    21  16  79 SW3       30.07S
WHEATON        CLEAR     18  16  93 SW6       30.08R WCI   9
MORRIS         MOCLDY    19  16  86 SW6       30.04F WCI  11
ALEXANDRIA     MOCLDY    18  15  88 SW8       30.03S WCI   8
ELBOW LAKE     CLOUDY    20  18  90 SW6       30.04R WCI  12
WADENA         PTCLDY    18  16  93 W7        30.00S WCI   8
GLENWOOD       MOCLDY    16  14  93 SW6       30.05S WCI   7
APPLETON       PTCLDY    18  14  86 SW5       30.08S WCI  11
BENSON         CLOUDY    18  12  79 W6        30.07S WCI   9
ORTONVILLE     CLEAR     18  12  79 CALM      30.07S
MADISON        CLEAR     16  12  86 S6        30.09S WCI   7
WILLMAR        MOCLDY    18  12  79 SW7       30.09S WCI   8
$$
MNZ033>034-036-042>043-049>051-058-059-280600-
   Central Minnesota

CITY           SKY/WX    TMP DP  RH WIND       PRES   REMARKS
ST CLOUD       CLOUDY    19  12  74 SW7       30.07F WCI  10
SAUK CENTRE    CLOUDY    17  14  87 SW6       30.05S WCI   9
PAYNESVILLE    CLOUDY    15  13  90 S6        30.07F WCI   6
AITKIN         FLURRIES  23  16  74 SW3       30.00F
PINE RIVER     LGT SNOW  19  16  86 CALM      30.04S
BRAINERD       CLOUDY    20  15  81 SW5       30.02F WCI  13
STAPLES        MOCLDY    19  16  86 SW5       30.01S WCI  13
LONG PRAIRIE   CLOUDY    18  14  86 S6        30.03F WCI   9
LITTLE FALLS   MOCLDY    16  12  86 CALM      30.05F
LITCHFIELD     CLOUDY    16  14  93 CALM      30.09S
BUFFALO        CLOUDY    10   6  87 S3        30.11S
MAPLE LAKE     CLOUDY    15  12  90 SW5       30.09F WCI   7
$$
MNZ037-044-045-052-053-280600-
   East Central Minnesota

CITY           SKY/WX    TMP DP  RH WIND       PRES   REMARKS
PRINCETON      PTCLDY    12   9  85 CALM      30.07F
MORA           CLOUDY    19  12  73 SW7       30.07S WCI  10
CAMBRIDGE      MOCLDY    12   7  79 S5        30.06F WCI   4
RUSH CITY      CLOUDY    15  10  81 CALM      30.08S
MOOSE LAKE     CLOUDY    18  10  73 SW3       30.01S
HINCKLEY       FAIR      18  12  79 CALM      30.05S
CLOQUET        MOCLDY    18  10  73 W8        29.99S WCI   7
MCGREGOR       CLOUDY    21  18  86 W5        30.02S WCI  15
$$
MNZ071>073-080-081-089-090-097-098-280600-
   Southwest Minnesota

CITY           SKY/WX    TMP DP  RH WIND       PRES   REMARKS
MONTEVIDEO     CLOUDY    16  14  93 W7        30.10F WCI   6
GRANITE FALLS  PTCLDY    14  10  85 SW6       30.12S WCI   5
CANBY          CLEAR     17  12  81 W6        30.10S WCI   9
MARSHALL       CLEAR     14   7  73 W12       30.09R WCI   0
REDWOOD FALLS  CLEAR     11   6  81 SW7       30.11F WCI   0
OLIVIA         MOCLDY    10   9  92 SW7       30.10S WCI   0
PIPESTONE      FAIR       1   0  92 W3        30.09S FOG
WINDOM         CLEAR      9   7  92 SW6       30.11F WCI  -1
WORTHINGTON    CLEAR      9 N/A N/A SW7       30.11F WCI  -3
JACKSON        CLEAR     14   9  79 SW10      30.12S WCI   1
TRACY          CLEAR     13   9  85 SW14      30.09F WCI  -2
SLAYTON        PTCLDY    13  10  86 SW3       30.10R
$$
MNZ065>067-074>077-082>085-091>093-280600-
   South Central Minnesota

CITY           SKY/WX    TMP DP  RH WIND       PRES   REMARKS
MANKATO        CLEAR     10   3  72 S3        30.13S
NEW ULM        CLEAR      5   3  92 SW5       30.13R WCI  -4
ST JAMES       CLEAR     14   9  79 SW10      30.14S WCI   1
FAIRMONT       CLEAR     12   7  79 W10       30.12F WCI  -1
GLENCOE        CLEAR      8   6  91 SW3       30.10F
FARIBAULT      CLEAR      9   5  85 S3        30.13S
OWATONNA       CLEAR      9   5  85 SW5       30.13R WCI   0
ALBERT LEA     CLEAR     12   9  85 SW5       30.13F WCI   4
$$
MNZ078>079-086>088-094>096-280600-
   Southeast Minnesota

CITY           SKY/WX    TMP DP  RH WIND       PRES   REMARKS
ROCHESTER      CLEAR      7   3  84 SW14      30.11F WCI -10
RED WING       PTCLDY     3   1  92 CALM      30.13S
STANTON        CLEAR     10   6  82 S6        30.12S WCI   1
DODGE CENTER   PTCLDY     9   5  85 SW9       30.10S WCI  -5
WINONA         CLEAR     14   9  79 CALM      30.17F
AUSTIN         PTCLDY     9   5  85 SW6       30.13S WCI  -1
PRESTON        PTCLDY    10   6  85 SW8       30.12F WCI  -2
$$
ABBREVIATIONS USED IN REMARKS
   TC - TEMPERATURES IN CELSIUS
  WCI - WIND CHILL INDEX
   HX - HEAT INDEX
  VSB - VISIBILITY
$$


USA.gov is the U.S. government's official web portal to all federal, state and local government web resources and services.